Location: Newark
(44.2886°N, 4.8431°E)
Time: 15:20:16
(UTC+00:00)

ZACube-1 - Pass Details

Date: 26 November 2020
Orbit: 584 x 665 km, 97.6° (Epoch: 14 January)

Event Time Altitude Azimuth Distance (km) Brightness Sun altitude
Rises 05:36:29 0° 5° (N) 2,822 ? -13.1°
Reaches altitude 10° 05:38:44 10° 357° (N) 1,918 ? -12.7°
Maximum altitude 05:42:35 38° 289° (WNW) 903 ? -12.0°
Drops below altitude 10° 05:46:27 10° 221° (SW) 1,924 ? -11.4°
Sets 05:48:43 0° 213° (SSW) 2,831 ? -11.0°
